Tracking 28794 objects as of 19-Apr-2024
HD Live streaming from Space Station
objects crossing your sky now

METEOR 2-17 DEB

Track METEOR 2-17 DEB now!
10-day predictions


NORAD ID: 29302
Int'l Code: 1988-005R
Perigee: 875.4 km
Apogee: 905.2 km
Inclination: 82.5 °
Period: 102.6 minutes
Semi major axis: 7261 km
RCS: 0.0088 m2 (small)
Launch date: January 30, 1988
Source: Commonwealth of Independent States (former USSR) (CIS)
Launch site: PLESETSK MISSILE AND SPACE COMPLEX (PKMTR)

Note: This is SATELLITE DEBRIS
Your satellite tracking list
Your tracking list is empty




NASA's NSSDC Master Catalog

Two Line Element Set (TLE):
1 29302U 88005R   24108.84314886  .00003495  00000-0  22353-2 0  9992
2 29302  82.5483 145.2479 0020488  49.7262 310.5695 14.03073732510636
Source of the keplerian elements: AFSPC